OpenBCM V1.08-5-g2f4a (Linux)

Packet Radio Mailbox

IZ3LSV

[San Dona' di P. JN]

 Login: GUEST





  
CX2SA  > KEPS     02.05.14 01:39l 304 Lines 7962 Bytes #999 (0) @ WW
BID : ORB14121.D
Read: GUEST
Subj: Orbital Elements  14121.MICROS
Path: IZ3LSV<IR1UAW<IK1NHL<CX2SA
Sent: 140502/0036Z @:CX2SA.SAL.URY.SA #:5679 [Salto] FBB7.00e $:ORB14121.D
From: CX2SA@CX2SA.SAL.URY.SA
To  : KEPS@AMSAT


HR AMSAT ORBITAL ELEMENTS FOR THE MICROSATS
FROM WA5QGD FORT WORTH,TX May 1, 2014
BID: ORB14121.D
TO ALL RADIO AMATEURS BT

Satellite: UO-11
Catalog number: 14781
Epoch time:      14121.16127018
Element set:     478
Inclination:      097.8562 deg
RA of node:       182.1954 deg
Eccentricity:    0.0007745
Arg of perigee:   342.4290 deg
Mean anomaly:     017.6654 deg
Mean motion:   14.81537936 rev/day
Decay rate:       6.08e-06 rev/day^2
Epoch rev:           62100
Checksum:              300

Satellite: AO-16
Catalog number: 20439
Epoch time:      14120.80759042
Element set:      11
Inclination:      098.5045 deg
RA of node:       059.0419 deg
Eccentricity:    0.0009709
Arg of perigee:   302.1218 deg
Mean anomaly:     111.0309 deg
Mean motion:   14.32342640 rev/day
Decay rate:       1.73e-06 rev/day^2
Epoch rev:           26770
Checksum:              258

Satellite: LO-19
Catalog number: 20442
Epoch time:      14121.13909501
Element set:     949
Inclination:      098.4752 deg
RA of node:       060.1645 deg
Eccentricity:    0.0010589
Arg of perigee:   288.8880 deg
Mean anomaly:     071.1156 deg
Mean motion:   14.32546080 rev/day
Decay rate:       1.28e-06 rev/day^2
Epoch rev:           26794
Checksum:              306

Satellite: AO-27
Catalog number: 22825
Epoch time:      14120.81042859
Element set:     654
Inclination:      098.6586 deg
RA of node:       067.1533 deg
Eccentricity:    0.0009538
Arg of perigee:   080.0039 deg
Mean anomaly:     332.2895 deg
Mean motion:   14.29707596 rev/day
Decay rate:       1.45e-06 rev/day^2
Epoch rev:            7401
Checksum:              314

Satellite: IO-26
Catalog number: 22826
Epoch time:      14121.08543514
Element set:     411
Inclination:      098.6528 deg
RA of node:       067.6539 deg
Eccentricity:    0.0010045
Arg of perigee:   072.7271 deg
Mean anomaly:     287.5009 deg
Mean motion:   14.30006799 rev/day
Decay rate:       1.54e-06 rev/day^2
Epoch rev:            7418
Checksum:              293

Satellite: GO-32
Catalog number: 25397
Epoch time:      14121.49741644
Element set:     335
Inclination:      098.4642 deg
RA of node:       081.2386 deg
Eccentricity:    0.0002508
Arg of perigee:   095.4810 deg
Mean anomaly:     018.3743 deg
Mean motion:   14.23437154 rev/day
Decay rate:        5.9e-07 rev/day^2
Epoch rev:           82122
Checksum:              293

Satellite: NO-44
Catalog number: 26931
Epoch time:      14121.53794821
Element set:     591
Inclination:      067.0503 deg
RA of node:       158.7498 deg
Eccentricity:    0.0005904
Arg of perigee:   281.4741 deg
Mean anomaly:     078.5697 deg
Mean motion:   14.30101773 rev/day
Decay rate:        8.7e-07 rev/day^2
Epoch rev:           65693
Checksum:              324

Satellite: SO-50
Catalog number: 27607
Epoch time:      14121.80574979
Element set:     379
Inclination:      064.5579 deg
RA of node:       013.7256 deg
Eccentricity:    0.0042050
Arg of perigee:   026.0114 deg
Mean anomaly:     334.3088 deg
Mean motion:   14.73704768 rev/day
Decay rate:       6.69e-06 rev/day^2
Epoch rev:           61064
Checksum:              313

Satellite: CO-55
Catalog number: 27844
Epoch time:      14121.82879808
Element set:     913
Inclination:      098.6987 deg
RA of node:       131.2687 deg
Eccentricity:    0.0010521
Arg of perigee:   055.4258 deg
Mean anomaly:     068.9051 deg
Mean motion:   14.21482289 rev/day
Decay rate:       2.63e-06 rev/day^2
Epoch rev:           56199
Checksum:              341

Satellite: CO-57
Catalog number: 27848
Epoch time:      14120.96588086
Element set:     854
Inclination:      098.7081 deg
RA of node:       130.1034 deg
Eccentricity:    0.0010558
Arg of perigee:   063.6668 deg
Mean anomaly:     355.5488 deg
Mean motion:   14.21172148 rev/day
Decay rate:       2.07e-06 rev/day^2
Epoch rev:           56179
Checksum:              331

Satellite: AO-51
Catalog number: 28375
Epoch time:      14120.86299267
Element set:     827
Inclination:      098.2467 deg
RA of node:       069.3950 deg
Eccentricity:    0.0084257
Arg of perigee:   134.9594 deg
Mean anomaly:     225.8468 deg
Mean motion:   14.41363401 rev/day
Decay rate:       2.33e-06 rev/day^2
Epoch rev:           51709
Checksum:              336

Satellite: CP3
Catalog number: 31129
Epoch time:      14121.86561693
Element set:     735
Inclination:      097.9305 deg
RA of node:       102.2092 deg
Eccentricity:    0.0099478
Arg of perigee:   154.5273 deg
Mean anomaly:     243.1272 deg
Mean motion:   14.54594087 rev/day
Decay rate:       8.37e-06 rev/day^2
Epoch rev:           37330
Checksum:              311

Satellite: CO-65
Catalog number: 32785
Epoch time:      14121.13893303
Element set:     936
Inclination:      097.7037 deg
RA of node:       173.9726 deg
Eccentricity:    0.0012952
Arg of perigee:   349.5189 deg
Mean anomaly:     068.4095 deg
Mean motion:   14.85166669 rev/day
Decay rate:      1.341e-05 rev/day^2
Epoch rev:           32504
Checksum:              335

Satellite: PRISM
Catalog number: 33493
Epoch time:      14121.72034790
Element set:     874
Inclination:      098.2463 deg
RA of node:       295.4134 deg
Eccentricity:    0.0016790
Arg of perigee:   233.4163 deg
Mean anomaly:     126.5490 deg
Mean motion:   14.89116529 rev/day
Decay rate:      5.286e-05 rev/day^2
Epoch rev:           28526
Checksum:              312

Satellite: SOHLA-1
Catalog number: 33496
Epoch time:      14121.86784758
Element set:     338
Inclination:      098.1638 deg
RA of node:       242.7034 deg
Eccentricity:    0.0006769
Arg of perigee:   041.5538 deg
Mean anomaly:     070.4099 deg
Mean motion:   14.70767514 rev/day
Decay rate:       4.81e-06 rev/day^2
Epoch rev:           28270
Checksum:              326

Satellite: TISAT-1
Catalog number: 36799
Epoch time:      14121.81060433
Element set:     136
Inclination:      098.0164 deg
RA of node:       213.4657 deg
Eccentricity:    0.0015545
Arg of perigee:   111.3143 deg
Mean anomaly:     248.9684 deg
Mean motion:   14.85443257 rev/day
Decay rate:      3.595e-05 rev/day^2
Epoch rev:           20583
Checksum:              302

Satellite: STUDSAT
Catalog number: 36801
Epoch time:      14121.77941531
Element set:     816
Inclination:      098.0338 deg
RA of node:       220.5926 deg
Eccentricity:    0.0010112
Arg of perigee:   092.5041 deg
Mean anomaly:     267.7844 deg
Mean motion:   14.95801152 rev/day
Decay rate:      9.951e-05 rev/day^2
Epoch rev:           20619
Checksum:              286

Satellite: ALMASAT-1
Catalog number: 38078
Epoch time:      14121.05104948
Element set:      11
Inclination:      069.4677 deg
RA of node:       172.7033 deg
Eccentricity:    0.0603788
Arg of perigee:   094.4658 deg
Mean anomaly:     314.8293 deg
Mean motion:   14.46770587 rev/day
Decay rate:     2.9515e-04 rev/day^2
Epoch rev:           11481
Checksum:              323

Satellite: XATCOBEO
Catalog number: 38082
Epoch time:      14121.85576505
Element set:     178
Inclination:      069.4473 deg
RA of node:       085.3134 deg
Eccentricity:    0.0279147
Arg of perigee:   045.9355 deg
Mean anomaly:     356.2710 deg
Mean motion:   15.33359981 rev/day
Decay rate:    2.83219e-03 rev/day^2
Epoch rev:           11723
Checksum:              321

Satellite: CUBEBUG-1
Catalog number: 39153
Epoch time:      14121.76942824
Element set:      80
Inclination:      098.0449 deg
RA of node:       202.1655 deg
Eccentricity:    0.0018704
Arg of perigee:   137.6958 deg
Mean anomaly:     222.5675 deg
Mean motion:   14.77592541 rev/day
Decay rate:      2.005e-05 rev/day^2
Epoch rev:            5470
Checksum:              301

Satellite: ESTCUBE-1
Catalog number: 39161
Epoch time:      14121.73068583
Element set:      57
Inclination:      098.0985 deg
RA of node:       202.9672 deg
Eccentricity:    0.0010205
Arg of perigee:   173.9275 deg
Mean anomaly:     186.2027 deg
Mean motion:   14.69900099 rev/day
Decay rate:      1.601e-05 rev/day^2
Epoch rev:            5277
Checksum:              302



Read previous mail | Read next mail


 22.12.2024 10:08:22lGo back Go up